Location: Aulus
(42.7909°N, 1.3399°E)
Time: 22:18:58
(UTC+00:00)

Ariane Rocket - Pass Details

Date: 19 May 2025
Orbit: 756 x 764 km, 98.5° (Epoch: 11 June)

Event Time Altitude Azimuth Distance (km) Brightness Sun altitude
Exits shadow 21:17:02 32° 150° (SSE) 1,277 3.6 -17.9°
Maximum altitude 21:19:21 71° 74° (ENE) 805 3.0 -18.2°
Drops below altitude 10° 21:24:24 10° 351° (N) 2,306 6.4 -18.7°
Sets 21:26:43 0° 349° (N) 3,238 7.4 -19.0°
